TimeCDT,TemperatureF,Dew PointF,Humidity,Sea Level PressureIn,VisibilityMPH,Wind Direction,Wind SpeedMPH,Gust SpeedMPH,PrecipitationIn,Events,Conditions,WindDirDegrees,DateUTC
12:15 AM,64.4,51.8,64,29.72,10.0,South,8.1,-,N/A,,Clear,180,2012-10-17 05:15:00
12:35 AM,64.4,51.8,64,29.72,10.0,South,6.9,-,N/A,,Clear,190,2012-10-17 05:35:00
12:55 AM,62.6,51.8,68,29.72,10.0,South,8.1,-,N/A,,Clear,180,2012-10-17 05:55:00
1:15 AM,62.6,51.8,68,29.72,10.0,South,8.1,-,N/A,,Clear,180,2012-10-17 06:15:00
1:35 AM,62.6,51.8,68,29.73,10.0,South,9.2,-,N/A,,Clear,180,2012-10-17 06:35:00
1:55 AM,60.8,51.8,72,29.72,10.0,South,8.1,-,N/A,,Clear,180,2012-10-17 06:55:00
2:15 AM,60.8,51.8,72,29.72,10.0,South,8.1,-,N/A,,Clear,170,2012-10-17 07:15:00
2:35 AM,60.8,51.8,72,29.72,10.0,South,6.9,-,N/A,,Clear,170,2012-10-17 07:35:00
2:55 AM,59.0,51.8,77,29.71,10.0,South,8.1,-,N/A,,Clear,170,2012-10-17 07:55:00
3:15 AM,59.0,51.8,77,29.70,10.0,South,10.4,-,N/A,,Clear,170,2012-10-17 08:15:00
3:35 AM,59.0,51.8,77,29.70,10.0,South,10.4,-,N/A,,Clear,170,2012-10-17 08:35:00
3:55 AM,57.2,51.8,82,29.69,10.0,SSE,6.9,-,N/A,,Clear,160,2012-10-17 08:55:00
4:15 AM,57.2,51.8,82,29.69,10.0,SSE,6.9,-,N/A,,Clear,160,2012-10-17 09:15:00
4:35 AM,57.2,50.0,77,29.68,10.0,SSE,9.2,-,N/A,,Clear,160,2012-10-17 09:35:00
4:55 AM,57.2,50.0,77,29.68,10.0,SSE,8.1,-,N/A,,Clear,160,2012-10-17 09:55:00
5:15 AM,57.2,50.0,77,29.68,10.0,SSE,9.2,-,N/A,,Clear,160,2012-10-17 10:15:00
5:35 AM,57.2,50.0,77,29.68,10.0,South,9.2,-,N/A,,Clear,170,2012-10-17 10:35:00
5:55 AM,57.2,50.0,77,29.69,10.0,South,8.1,-,N/A,,Clear,170,2012-10-17 10:55:00
6:15 AM,57.2,51.8,82,29.69,10.0,South,10.4,-,N/A,,Scattered Clouds,170,2012-10-17 11:15:00
6:35 AM,57.2,51.8,82,29.69,10.0,South,9.2,-,N/A,,Clear,170,2012-10-17 11:35:00
6:55 AM,57.2,51.8,82,29.68,10.0,South,6.9,-,N/A,,Scattered Clouds,170,2012-10-17 11:55:00
7:15 AM,57.2,51.8,82,29.68,10.0,South,9.2,-,N/A,,Mostly Cloudy,170,2012-10-17 12:15:00
7:35 AM,57.2,51.8,82,29.67,10.0,South,9.2,-,N/A,,Mostly Cloudy,170,2012-10-17 12:35:00
7:55 AM,59.0,51.8,77,29.67,10.0,SSE,11.5,-,N/A,,Scattered Clouds,160,2012-10-17 12:55:00
8:15 AM,60.8,51.8,72,29.67,10.0,South,12.7,18.4,N/A,,Clear,170,2012-10-17 13:15:00
8:35 AM,62.6,53.6,72,29.67,10.0,SSE,12.7,21.9,N/A,,Clear,160,2012-10-17 13:35:00
8:55 AM,62.6,53.6,72,29.67,10.0,South,12.7,19.6,N/A,,Mostly Cloudy,170,2012-10-17 13:55:00
9:15 AM,62.6,53.6,72,29.66,10.0,SSE,15.0,-,N/A,,Mostly Cloudy,160,2012-10-17 14:15:00
9:35 AM,62.6,53.6,72,29.66,10.0,South,15.0,19.6,N/A,,Mostly Cloudy,170,2012-10-17 14:35:00
9:55 AM,62.6,53.6,72,29.66,10.0,South,13.8,18.4,N/A,,Overcast,170,2012-10-17 14:55:00
10:15 AM,64.4,53.6,68,29.66,10.0,South,13.8,20.7,N/A,,Overcast,170,2012-10-17 15:15:00
10:35 AM,64.4,53.6,68,29.65,10.0,South,15.0,20.7,N/A,,Overcast,170,2012-10-17 15:35:00
10:55 AM,64.4,53.6,68,29.64,10.0,South,15.0,-,N/A,,Overcast,170,2012-10-17 15:55:00
11:15 AM,64.4,53.6,68,29.64,10.0,South,12.7,-,N/A,,Overcast,170,2012-10-17 16:15:00
11:35 AM,66.2,55.4,68,29.64,10.0,South,11.5,-,N/A,,Overcast,170,2012-10-17 16:35:00
11:55 AM,66.2,55.4,68,29.62,10.0,South,13.8,19.6,N/A,,Overcast,170,2012-10-17 16:55:00
12:15 PM,66.2,55.4,68,29.62,10.0,South,15.0,24.2,N/A,,Overcast,170,2012-10-17 17:15:00
12:35 PM,68.0,55.4,64,29.60,10.0,South,13.8,20.7,N/A,,Overcast,170,2012-10-17 17:35:00
12:55 PM,71.6,55.4,57,29.59,10.0,South,16.1,23.0,N/A,,Overcast,170,2012-10-17 17:55:00
1:15 PM,71.6,55.4,57,29.58,10.0,South,11.5,24.2,N/A,,Overcast,170,2012-10-17 18:15:00
1:35 PM,73.4,55.4,53,29.57,10.0,South,18.4,24.2,N/A,,Scattered Clouds,180,2012-10-17 18:35:00
1:55 PM,73.4,55.4,53,29.57,10.0,South,17.3,-,N/A,,Mostly Cloudy,170,2012-10-17 18:55:00
2:15 PM,73.4,55.4,53,29.56,10.0,South,12.7,26.5,N/A,,Scattered Clouds,180,2012-10-17 19:15:00
2:35 PM,73.4,55.4,53,29.55,10.0,South,15.0,23.0,N/A,,Scattered Clouds,180,2012-10-17 19:35:00
2:55 PM,73.4,55.4,53,29.55,10.0,South,12.7,21.9,N/A,,Scattered Clouds,180,2012-10-17 19:55:00
3:15 PM,73.4,57.2,57,29.54,10.0,South,10.4,20.7,N/A,,Scattered Clouds,170,2012-10-17 20:15:00
3:35 PM,73.4,55.4,53,29.52,10.0,South,17.3,-,N/A,,Overcast,170,2012-10-17 20:35:00
3:55 PM,73.4,55.4,53,29.51,10.0,South,18.4,26.5,N/A,,Overcast,170,2012-10-17 20:55:00
4:15 PM,73.4,55.4,53,29.50,10.0,South,15.0,25.3,N/A,,Overcast,170,2012-10-17 21:15:00
4:35 PM,73.4,55.4,53,29.49,10.0,South,16.1,23.0,N/A,,Overcast,170,2012-10-17 21:35:00
4:55 PM,73.4,55.4,53,29.47,10.0,SSE,15.0,21.9,N/A,,Overcast,160,2012-10-17 21:55:00
5:15 PM,73.4,55.4,53,29.46,10.0,SSE,15.0,25.3,N/A,,Overcast,150,2012-10-17 22:15:00
5:35 PM,71.6,55.4,57,29.45,10.0,SSE,15.0,-,N/A,,Overcast,150,2012-10-17 22:35:00
5:55 PM,71.6,53.6,53,29.43,10.0,SSE,17.3,21.9,N/A,,Mostly Cloudy,150,2012-10-17 22:55:00
6:15 PM,71.6,53.6,53,29.42,10.0,SSE,19.6,28.8,N/A,,Clear,150,2012-10-17 23:15:00
6:35 PM,71.6,51.8,50,29.38,10.0,SSE,18.4,25.3,N/A,,Clear,150,2012-10-17 23:35:00
6:55 PM,71.6,51.8,50,29.38,10.0,SSE,17.3,29.9,N/A,,Clear,150,2012-10-17 23:55:00
7:15 PM,69.8,51.8,53,29.40,10.0,SSE,15.0,24.2,N/A,Rain-Thunderstorm,Light Thunderstorms and Rain,160,2012-10-18 00:15:00
7:35 PM,68.0,51.8,56,29.38,10.0,SSE,19.6,28.8,N/A,Rain-Thunderstorm,Light Thunderstorms and Rain,150,2012-10-18 00:35:00
9:35 PM,57.2,57.2,100,29.48,10.0,SSE,8.1,-,0.18,Rain,Rain,150,2012-10-18 02:35:00
9:55 PM,57.2,57.2,100,29.50,10.0,South,5.8,-,0.01,Rain,Light Rain,190,2012-10-18 02:55:00
10:15 PM,57.2,57.2,100,29.49,10.0,Calm,Calm,-,0.01,Rain,Light Rain,0,2012-10-18 03:15:00
10:35 PM,57.2,57.2,100,29.50,10.0,WSW,3.5,-,0.02,Rain,Rain,240,2012-10-18 03:35:00
10:55 PM,57.2,57.2,100,29.49,10.0,South,4.6,-,0.03,Rain,Rain,190,2012-10-18 03:55:00
11:15 PM,57.2,57.2,100,29.49,10.0,Calm,Calm,-,0.05,Rain,Light Rain,0,2012-10-18 04:15:00
11:35 PM,55.4,53.6,94,29.51,10.0,NW,11.5,16.1,0.06,Rain,Light Rain,320,2012-10-18 04:35:00
11:55 PM,55.4,53.6,94,29.51,10.0,NW,9.2,-,N/A,,Overcast,310,2012-10-18 04:55:00